This is the latest recevied weather packets stored in our database for station/object VA3BOO. If no packets are shown the sender has not sent any weather packets the latest 10 day(s).
| Time | Temp. | Humidity | Pressure | Rain* | Wind** | Luminosity | Snow |
|---|---|---|---|---|---|---|---|
| 1777915804 | 17.22° C | 50% | 1004.6 hPa | 0 mm | - | 743 W/m² | - |
| 1777915504 | 16.67° C | 50% | 1004.9 hPa | 0 mm | - | 782 W/m² | - |
| 1777915204 | 16.67° C | 51% | 1004.7 hPa | 0 mm | - | 806 W/m² | - |
| 1777914904 | 16.67° C | 51% | 1004.9 hPa | 0 mm | - | 789 W/m² | - |
| 1777914604 | 16.67° C | 51% | 1004.9 hPa | 0 mm | - | 757 W/m² | - |
| 1777914304 | 16.11° C | 50% | 1004.9 hPa | 0 mm | - | 790 W/m² | - |
| 1777914004 | 16.11° C | 53% | 1005.1 hPa | 0 mm | - | 780 W/m² | - |
| 1777913704 | 16.11° C | 51% | 1005 hPa | 0 mm | - | 808 W/m² | - |
| 1777913404 | 16.11° C | 50% | 1005 hPa | 0 mm | - | 780 W/m² | - |
| 1777913104 | 15.56° C | 52% | 1005.1 hPa | 0 mm | - | 785 W/m² | - |
| 1777912804 | 15.56° C | 52% | 1005 hPa | 0 mm | - | 792 W/m² | - |
| 1777912504 | 15.56° C | 53% | 1005.2 hPa | 0 mm | - | 790 W/m² | - |
| 1777912204 | 16.11° C | 52% | 1004.9 hPa | 0 mm | - | 789 W/m² | - |
| 1777911904 | 15.56° C | 52% | 1005.1 hPa | 0 mm | - | 783 W/m² | - |
| 1777911604 | 15.56° C | 53% | 1005.1 hPa | 0 mm | - | 778 W/m² | - |
| 1777911304 | 15° C | 54% | 1005 hPa | 0 mm | - | 631 W/m² | - |
| 1777911004 | 15° C | 54% | 1005.2 hPa | 0 mm | - | 773 W/m² | - |
| 1777910703 | 15° C | 54% | 1005.4 hPa | 0 mm | - | 770 W/m² | - |
| 1777910404 | 15° C | 54% | 1005.3 hPa | 0 mm | - | 765 W/m² | - |
| 1777910104 | 15° C | 53% | 1005.2 hPa | 0 mm | - | 759 W/m² | - |
| 1777909804 | 14.44° C | 55% | 1005.2 hPa | 0 mm | - | 756 W/m² | - |
| 1777909504 | 14.44° C | 55% | 1005.5 hPa | 0 mm | - | 751 W/m² | - |
| 1777909204 | 14.44° C | 56% | 1005.5 hPa | 0 mm | - | 746 W/m² | - |
| 1777908904 | 14.44° C | 55% | 1005.4 hPa | 0 mm | - | 729 W/m² | - |
| 1777908603 | 14.44° C | 55% | 1005.4 hPa | 0 mm | - | 727 W/m² | - |
* Rain latest hour (hover to see other rain measurements)
** Current wind speed in m/s (hover to see current wind gust speed)